Wind_Speed
22 21 20 19 18 17 17 16 15 14 13 12 11 10 9 8 8 7 6 6 5 4 4 4 3 3 3 4 5 5 4 3 2 2 3 4 5 6 6 7 7 7 8 9 10 11 13 13 13 13 14 15 16 17 18 18 19 19 20 20 21 21 22 23 23 24 24 24 23 23 24 25 26 27
23 23 22 22 21 20 19 18 18 17 16 15 14 13 12 12 11 10 10 9 8 6 5 4 4 4 4 4 5 6 6 5 3 2 3 4 5 6 7 7 7 7 8 9 11 12 13 13 14 15 16 17 18 19 19 20 21 21 22 22 23 23 24 25 26 26 27 26 26 27 28 29 29 30
24 24 24 24 23 22 22 21 20 19 18 17 17 16 16 15 14 14 13 13 12 11 10 9 7 7 7 7 7 7 7 7 6 5 6 7 8 8 8 9 10 10 11 13 14 14 15 16 17 18 19 20 21 21 22 22 23 23 24 24 25 26 28 29 30 32 32 33 34 35 36 36 36 36
24 24 24 24 25 25 25 24 23 22 21 21 20 19 18 18 17 17 17 16 16 16 15 14 13 12 11 11 11 11 11 10 9 9 10 12 14 13 13 14 14 15 16 17 19 19 20 21 22 22 23 24 24 24 24 24 25 26 26 28 30 32 33 35 36 38 39 41 42 43 43 43 43 43
23 24 24 25 25 25 26 26 26 25 25 24 24 23 22 21 21 21 21 20 20 20 20 19 19 18 17 17 17 16 16 16 15 16 16 17 19 20 20 21 21 22 23 24 25 25 26 26 27 27 27 27 28 28 28 29 29 31 32 34 36 38 40 41 42 43 45 46 47 48 48 48 48 48
21 22 23 24 25 25 25 26 27 27 27 27 27 27 26 26 26 26 25 25 24 24 24 24 24 24 24 24 24 24 24 23 23 24 24 25 26 26 26 27 27 28 28 29 29 29 30 30 30 30 30 31 31 32 33 34 35 37 38 40 41 43 45 45 46 47 49 50 50 51 51 51 52 52
19 20 21 22 23 24 25 26 26 26 27 27 27 28 29 29 30 30 29 29 29 28 28 28 28 28 28 28 29 29 29 29 30 30 31 31 30 30 31 31 31 31 31 31 31 31 32 32 32 32 33 34 35 36 37 39 40 41 42 43 45 46 47 47 48 50 51 51 51 51 52 52 52 52
17 17 18 20 21 23 24 25 26 26 26 27 27 27 28 29 30 31 31 31 31 31 30 30 30 30 30 30 31 31 32 32 33 33 33 33 33 33 33 33 33 33 33 33 33 33 33 34 35 36 37 37 38 39 40 41 42 43 44 45 45 46 46 47 48 49 50 50 50 51 51 51 51 52
15 15 16 17 19 20 21 23 24 25 26 26 26 26 27 28 28 29 30 30 30 30 30 30 29 29 30 30 30 31 31 32 33 33 34 34 35 35 36 35 35 35 35 36 36 37 37 37 38 39 39 40 40 41 41 42 42 43 43 44 44 45 45 45 46 47 48 48 49 49 49 49 49 49
13 13 14 14 16 17 18 20 21 22 23 24 25 25 25 26 26 26 27 27 27 27 27 27 27 27 27 27 28 29 29 30 32 33 34 34 34 35 36 36 36 36 37 37 37 37 38 38 38 39 39 39 39 40 40 40 40 40 41 41 41 42 42 42 43 44 45 45 45 45 46 46 46 46
10 10 11 12 13 14 15 16 17 18 20 21 21 22 22 23 23 23 23 23 23 23 23 23 23 23 23 23 24 25 26 27 29 30 32 32 32 33 34 35 35 35 35 36 36 36 36 36 36 36 36 36 36 36 36 35 35 36 37 38 38 38 38 39 39 39 40 41 41 41 42 42 42 42
7 7 8 9 10 11 11 12 13 14 15 16 17 18 18 19 19 19 19 20 19 19 19 19 19 19 19 19 20 21 23 24 25 27 28 29 29 30 30 31 32 31 31 32 32 32 32 32 32 32 32 32 31 31 31 31 32 32 33 33 34 34 34 34 34 34 35 36 36 36 37 37 38 38
4 4 5 5 6 8 8 9 10 11 12 12 13 14 14 15 15 15 15 15 15 15 15 15 15 15 16 16 17 18 19 20 21 23 24 25 26 26 27 27 27 27 27 27 27 27 27 27 27 27 27 27 26 26 27 27 28 28 28 27 28 28 28 29 29 30 31 32 32 32 33 33 33 34
4 3 3 3 3 4 5 6 7 7 8 8 9 9 10 11 11 11 11 11 11 11 11 11 11 12 12 13 14 16 17 17 18 19 20 21 22 23 23 23 23 23 22 21 21 21 22 23 23 23 22 21 21 21 22 22 22 23 23 23 23 24 24 25 25 26 27 27 27 28 28 29 29 30
6 5 4 4 3 3 2 3 4 5 5 5 5 6 6 6 7 7 7 7 6 6 6 7 7 7 8 10 10 11 13 14 14 15 16 17 18 18 19 18 18 18 17 17 17 16 17 18 17 17 17 17 17 17 17 17 18 18 19 19 19 20 21 21 21 22 22 22 22 23 24 24 25 26
9 8 8 7 6 6 4 3 3 3 3 3 3 3 3 3 3 3 3 3 3 3 2 2 2 3 4 6 7 8 9 10 11 11 12 12 13 14 14 14 14 13 13 13 12 12 12 12 12 12 12 12 12 13 13 13 14 14 15 16 16 16 17 18 19 20 20 19 19 20 20 21 22 23
12 11 11 10 10 9 8 7 6 5 5 5 4 4 3 3 3 3 2 1 0 0 1 2 2 2 1 3 5 6 7 7 8 9 9 9 9 9 9 9 9 9 9 8 8 7 7 6 7 7 7 8 8 9 9 10 11 12 13 14 14 15 15 16 18 19 21 20 19 19 20 21 21 22
15 14 13 13 13 13 12 11 10 9 8 8 8 7 6 6 6 6 6 5 5 5 4 5 5 5 5 5 5 6 7 7 8 8 8 8 7 7 6 6 6 6 5 4 3 3 3 2 2 3 4 5 5 6 7 8 9 10 11 13 14 15 16 17 18 20 21 22 22 22 22 22 22 22
17 17 16 15 15 15 15 14 14 14 12 11 11 11 10 9 9 9 10 10 10 10 11 10 9 9 9 9 9 9 8 9 9 9 9 8 7 6 6 5 5 5 5 4 3 2 3 4 4 5 6 7 7 8 8 8 9 10 11 13 14 16 17 19 20 21 22 23 24 24 24 24 23 24
19 20 19 18 18 17 17 16 17 17 16 15 14 13 13 12 12 12 14 15 14 14 15 15 14 12 10 11 12 12 13 12 12 12 12 11 11 9 9 8 8 8 8 8 7 7 7 7 8 8 9 10 11 11 10 11 11 12 13 14 15 17 19 20 21 22 23 23 24 24 25 25 25 25
22 22 22 21 20 19 18 18 19 19 19 18 16 16 16 15 13 13 16 18 17 16 15 15 15 13 11 9 10 12 14 15 16 16 16 16 16 15 14 14 13 13 12 12 11 11 11 12 12 13 13 14 14 14 14 14 14 15 15 16 17 18 19 20 21 22 23 23 24 24 25 26 26 26
23 23 24 23 22 21 19 20 21 21 21 20 19 18 18 16 13 12 15 18 17 16 15 15 14 13 11 9 8 9 11 13 15 17 18 19 19 19 19 19 19 19 18 17 16 16 16 17 17 17 17 17 17 17 17 18 18 18 18 18 19 19 20 21 21 22 22 23 23 24 24 25 26 26
24 25 25 24 23 22 21 21 22 23 24 23 22 20 20 18 13 11 15 19 18 17 16 15 15 15 13 11 9 9 10 11 12 14 16 18 20 21 21 21 22 22 23 22 21 21 21 21 21 21 21 20 20 20 20 20 20 20 19 19 19 20 20 20 21 21 21 22 22 23 24 24 25 26
26 26 26 26 25 23 23 23 23 24 25 26 25 24 23 19 14 13 17 20 20 19 18 16 16 16 16 14 12 11 11 10 10 11 13 15 17 18 18 20 21 22 23 24 23 22 22 23 24 23 23 22 22 21 21 20 20 20 20 19 19 18 19 19 19 20 20 21 21 22 22 23 24 24
30 28 26 26 27 26 25 25 25 25 26 27 28 28 26 22 18 16 18 20 22 22 20 17 17 18 18 18 16 14 13 12 11 11 11 11 12 13 13 15 17 17 19 21 22 20 18 19 20 20 20 20 20 20 19 19 19 18 17 17 16 15 14 15 15 16 17 18 19 19 20 21 22 23
38 34 30 28 27 27 27 27 27 27 28 28 30 30 29 26 22 19 19 21 22 23 22 20 19 20 21 21 20 18 16 15 15 14 13 11 11 12 12 12 13 13 13 15 18 19 16 14 14 14 14 13 13 13 14 14 13 12 10 11 10 9 9 10 10 12 13 14 15 17 18 18 20 21
42 41 39 35 31 29 30 30 30 30 30 31 32 32 31 30 27 23 21 21 21 22 23 23 22 22 24 24 23 21 19 19 19 18 16 15 14 15 15 14 14 14 13 13 16 18 17 14 13 12 11 8 7 8 8 8 7 6 5 5 5 6 8 9 10 11 13 13 15 15 16 17 18 19
45 44 43 41 38 35 34 33 32 33 33 33 33 33 33 32 30 27 24 23 22 23 25 25 24 25 27 27 26 24 22 22 22 21 20 18 18 17 16 16 16 16 15 15 16 18 18 16 13 12 11 8 7 8 8 8 7 7 6 6 6 7 9 11 13 15 16 16 17 17 17 17 17 18
48 46 45 44 42 41 39 37 35 34 34 34 34 34 34 34 33 31 28 26 25 25 27 26 25 26 27 28 28 27 25 24 24 24 22 21 21 20 18 18 19 18 16 15 16 17 17 15 13 12 12 11 10 11 11 11 10 10 10 9 9 9 11 13 15 17 18 19 19 19 19 19 19 18
52 50 48 46 45 44 44 42 40 37 36 35 36 36 36 35 35 34 32 30 29 29 29 29 27 26 27 29 29 27 26 25 26 25 23 22 23 22 20 21 23 22 18 17 18 17 16 15 14 13 14 14 14 14 15 16 16 15 14 14 14 14 15 17 18 19 19 19 19 19 19 20 20 20
53 53 51 50 49 48 47 46 44 42 40 37 36 37 37 37 36 36 34 33 33 33 32 32 30 28 28 29 30 28 26 26 28 26 24 24 25 24 23 25 28 27 22 20 21 19 18 18 17 17 18 19 19 19 20 21 21 20 20 21 20 19 19 20 21 21 20 19 18 17 18 18 19 21
54 55 55 53 52 51 50 49 47 46 44 42 40 38 38 37 37 37 36 36 36 36 36 35 34 32 30 30 32 31 28 29 30 28 27 27 28 27 25 27 31 31 26 23 23 22 21 21 21 21 22 23 22 22 23 25 24 23 24 25 26 24 22 21 22 22 21 20 19 18 17 16 16 18
55 56 57 56 55 53 52 51 50 49 48 47 45 44 42 40 38 38 38 38 39 39 39 38 38 36 33 32 33 33 31 31 32 31 30 30 30 29 29 30 32 33 30 26 25 25 24 24 24 25 26 26 25 24 25 26 26 25 24 26 28 27 24 22 22 22 21 21 21 20 19 17 16 17
58 56 56 57 56 55 53 53 53 52 51 51 50 49 47 45 43 40 39 39 40 40 40 41 42 41 37 34 34 34 33 33 33 33 33 33 33 32 32 33 35 35 33 30 28 27 27 27 26 26 27 26 26 26 26 27 27 26 25 27 30 30 27 25 24 24 23 23 23 23 22 21 19 19
65 61 57 56 57 56 55 55 56 55 54 54 54 54 53 51 49 46 43 41 40 40 41 43 44 44 41 38 37 37 37 36 36 35 36 36 36 36 36 37 38 38 36 34 32 30 28 28 27 27 27 27 27 28 29 30 29 28 28 31 34 35 32 29 27 28 29 27 26 26 26 25 24 23
70 67 61 58 57 57 57 57 58 58 57 58 58 58 58 57 55 53 49 45 42 41 42 44 45 46 45 44 42 41 40 39 38 38 38 37 38 38 39 40 41 40 38 38 37 34 31 30 29 29 29 29 30 33 34 33 33 34 35 38 41 41 38 32 30 32 35 33 30 29 30 30 30 28
72 71 67 63 61 61 61 61 60 59 59 60 61 61 61 61 60 58 55 52 49 46 45 45 45 47 48 48 48 46 44 42 41 40 40 39 39 40 41 42 43 43 42 42 41 38 35 35 34 34 33 33 35 38 39 38 37 39 40 42 45 45 40 34 33 36 37 35 32 31 33 35 35 32
75 75 73 70 67 65 64 63 61 60 61 63 64 65 65 65 64 62 60 57 56 54 51 49 48 49 50 51 51 50 48 46 44 43 43 42 42 43 44 45 45 45 45 45 45 43 41 40 39 38 38 37 39 42 43 42 41 39 38 41 46 46 41 36 36 38 37 35 34 36 38 39 38 36
82 81 79 77 73 70 68 67 66 66 66 67 68 69 69 69 68 67 64 62 61 60 58 55 53 52 52 54 54 53 51 49 47 46 46 46 46 47 47 47 47 48 48 48 49 48 47 45 43 42 42 42 43 45 47 48 46 42 40 42 47 46 42 40 40 41 41 42 43 43 42 40 39 40
89 88 86 84 82 79 77 77 77 76 75 74 74 74 74 73 72 70 69 67 66 64 63 62 59 57 56 57 57 56 54 52 50 49 49 49 50 50 50 49 50 50 51 51 51 52 51 49 47 45 45 45 45 47 49 52 52 49 47 47 48 48 46 44 44 45 46 48 48 46 45 43 43 44
94 93 92 91 90 89 88 87 86 84 83 81 80 78 77 77 75 74 73 71 70 68 67 66 65 62 61 61 61 60 58 56 54 53 52 52 53 53 53 53 54 55 54 54 55 55 55 53 50 48 48 48 48 48 51 54 56 57 55 52 50 49 48 47 46 47 48 49 48 48 49 49 47 46
98 97 96 95 95 95 94 93 92 90 89 87 85 82 80 79 78 77 76 75 73 72 71 70 70 68 66 65 65 64 63 62 60 57 56 55 55 56 56 57 58 58 58 58 58 59 59 57 54 52 52 52 52 52 54 57 60 60 60 57 55 53 52 51 50 49 49 50 49 50 51 51 48 47
101 100 100 99 99 98 98 97 96 95 93 90 86 84 83 82 80 79 79 78 77 75 74 74 74 73 71 70 69 68 68 67 65 62 60 60 59 58 58 59 60 62 62 62 62 62 62 61 60 58 57 57 57 57 59 62 63 63 63 62 59 57 57 56 53 51 50 51 52 52 52 50 48 49
100 100 101 101 101 101 100 100 99 97 94 90 86 84 84 84 83 82 81 80 79 78 77 76 76 76 75 74 73 72 71 71 69 67 66 65 63 62 60 60 60 63 65 66 67 67 66 65 63 63 62 62 62 61 63 64 64 64 65 64 61 60 60 59 56 55 54 53 54 54 52 49 48 51
99 99 100 100 101 101 100 99 98 96 93 90 87 85 84 85 85 85 84 82 81 81 80 79 79 78 78 77 76 75 75 75 74 73 71 70 68 66 64 62 60 61 64 67 69 71 71 69 68 66 65 65 64 63 63 63 62 62 64 64 62 62 62 61 60 59 58 57 57 55 52 50 51 53
Wind_Direction
61 61 62 61 61 60 59 57 56 55 56 58 59 60 59 60 62 63 63 63 66 71 71 66 61 55 43 28 22 19 15 8 8 22 16 14 13 11 8 7 10 14 12 12 17 21 25 27 26 25 25 26 26 28 30 32 33 34 35 35 33 32 32 34 35 37 37 37 40 44 50 54 57 58
62 62 62 62 62 61 59 58 56 55 55 55 54 54 54 53 52 51 50 49 50 50 48 43 36 30 23 14 13 14 14 14 12 10 6 11 16 12 10 14 19 21 20 23 29 32 33 34 35 35 36 38 40 42 44 47 48 49 49 49 48 50 52 53 54 54 55 56 57 59 61 63 65 65
64 64 64 64 64 63 62 59 58 57 57 57 57 56 56 56 55 54 53 52 54 54 53 50 47 41 37 34 33 32 34 37 39 36 32 36 41 40 36 37 40 41 41 43 46 48 48 49 50 51 53 55 57 59 61 62 63 62 62 63 64 67 68 68 69 69 69 68 68 69 69 69 70 71
65 66 67 67 67 66 66 65 63 63 63 63 63 63 62 62 62 63 63 62 63 64 64 62 62 60 58 56 55 54 54 55 55 54 50 48 53 57 58 56 57 57 58 60 62 64 65 66 67 70 72 73 74 75 75 75 75 75 76 78 79 79 79 78 78 78 77 76 75 74 74 74 75 75
65 67 68 69 69 69 69 69 69 68 68 68 68 69 69 69 70 70 70 71 71 71 72 72 72 71 71 70 70 69 68 67 66 64 62 61 63 65 66 67 68 70 71 74 77 79 80 82 84 86 86 87 87 88 88 87 87 88 89 88 88 87 86 85 84 84 83 82 80 79 79 78 78 78
63 65 67 68 70 71 71 71 71 70 70 70 70 71 72 72 72 72 72 73 73 73 74 74 74 74 75 75 76 76 75 73 72 70 70 69 69 70 72 74 77 79 83 86 88 91 92 94 95 95 96 97 97 97 96 96 96 95 94 93 92 90 89 88 88 87 86 85 84 83 82 81 80 80
60 61 63 65 67 69 71 72 72 71 70 70 69 69 70 70 70 70 71 71 71 71 71 71 71 71 71 72 73 74 74 74 74 74 74 74 75 78 82 85 87 90 94 96 97 98 99 100 101 102 103 103 103 102 102 101 99 98 96 95 93 92 90 89 88 87 87 86 85 83 82 81 81 80
54 57 60 62 63 65 69 71 72 72 71 70 69 68 67 67 67 67 67 67 67 67 67 67 67 67 68 69 71 73 74 76 79 81 82 84 86 90 93 95 98 100 101 102 103 104 105 105 106 107 106 106 105 104 103 101 99 98 96 95 94 92 90 88 87 87 87 86 85 83 82 81 80 79
46 49 52 57 61 61 64 67 70 71 71 70 69 68 66 65 65 64 64 64 64 64 64 64 64 66 68 70 73 77 80 83 87 90 92 94 97 100 102 104 105 106 106 107 108 109 109 109 109 108 106 105 104 102 101 99 97 95 94 93 92 91 89 86 84 84 85 85 84 83 82 81 80 78
38 40 41 47 55 59 60 62 65 68 69 69 68 67 66 65 63 62 62 62 62 63 64 64 64 66 69 72 77 82 86 90 94 98 100 102 105 107 108 108 109 110 110 110 110 110 110 110 109 107 105 103 101 99 97 94 92 91 90 90 89 88 87 84 82 81 82 82 82 81 79 78 77 76
33 32 32 34 41 51 57 59 60 63 65 67 67 66 65 65 64 62 61 61 62 64 65 66 67 68 71 75 81 86 91 96 100 103 105 107 108 110 110 111 111 112 112 111 110 110 109 109 108 105 103 100 98 95 92 89 87 86 86 86 85 84 82 79 76 75 76 76 76 76 75 73 72 71
30 26 25 24 28 36 46 54 57 59 60 62 64 65 65 65 64 63 62 61 62 65 68 69 71 73 77 81 86 91 96 100 104 108 110 111 112 113 114 113 113 112 112 110 109 109 108 106 104 102 99 96 94 91 89 88 85 83 82 80 78 76 74 72 70 68 68 69 69 69 68 66 64 63
13 17 13 12 17 20 27 39 48 53 55 56 58 61 64 66 65 64 64 64 64 67 72 75 78 81 85 89 94 99 102 105 108 111 114 114 115 117 117 115 113 112 111 110 108 106 106 104 101 100 97 94 91 90 89 87 83 79 77 75 73 73 73 72 70 68 67 67 66 65 64 62 59 58
326 334 339 341 350 2 9 15 24 35 43 49 51 55 59 64 66 66 65 65 67 69 72 77 84 90 94 98 103 107 110 112 114 116 118 119 120 121 120 118 115 112 110 109 108 105 103 102 100 97 94 91 88 87 87 84 79 74 72 72 71 72 73 73 70 68 67 67 65 61 58 56 54 52
291 293 293 291 293 303 328 344 352 360 11 25 35 41 47 55 64 69 69 66 62 63 66 73 83 93 102 108 111 115 118 120 121 122 124 125 126 126 125 123 119 114 110 108 108 106 102 99 96 91 88 85 83 81 80 78 73 66 62 62 62 64 66 66 62 61 63 62 58 53 51 51 49 46
275 277 277 276 273 270 266 269 284 302 315 329 346 1 9 16 31 54 73 77 68 53 47 52 67 88 116 127 128 128 130 131 131 131 132 134 134 134 133 130 126 121 115 109 107 104 99 94 90 84 82 80 77 75 72 67 60 51 47 48 49 51 50 47 43 43 46 48 48 47 46 45 42 39
270 268 269 270 269 267 264 258 254 255 262 272 279 285 296 301 305 308 311 315 197 237 281 281 283 282 215 170 163 160 156 154 151 149 147 146 147 148 147 144 140 133 126 115 105 98 93 89 86 78 72 68 65 62 56 48 41 35 31 31 32 31 30 27 26 25 27 29 33 33 30 28 27 27
271 268 266 266 266 265 265 263 259 255 252 256 260 262 265 268 272 276 278 280 280 274 268 260 257 256 255 241 218 200 190 185 181 177 172 169 168 169 171 171 169 162 152 138 116 88 65 55 58 42 31 29 26 23 21 19 16 15 13 12 12 12 10 10 9 9 11 13 15 16 16 16 16 15
275 271 268 266 265 264 264 265 264 261 258 256 258 260 261 262 266 270 273 274 277 279 277 272 263 252 246 246 246 239 230 220 213 209 204 199 197 201 208 211 214 213 212 221 239 260 308 324 318 320 329 333 335 337 341 345 348 349 351 352 353 354 354 354 356 358 360 2 4 6 7 7 7 6
280 275 271 268 266 265 265 266 266 265 264 261 259 260 261 260 263 269 272 274 273 275 275 274 270 262 250 244 245 245 245 243 238 235 231 228 226 230 239 242 244 247 246 250 255 262 279 297 298 297 303 309 312 315 317 322 326 328 331 334 337 340 342 343 346 348 351 354 355 356 358 359 360 360
281 276 272 268 266 265 265 267 268 268 266 264 261 261 260 258 258 262 267 270 270 270 270 271 272 270 264 254 246 244 245 246 246 245 245 245 243 244 249 254 257 259 259 259 264 270 276 283 287 288 291 295 299 303 306 309 312 315 317 321 324 328 331 334 337 340 345 347 348 348 349 351 353 354
275 272 269 266 262 260 260 263 266 267 268 266 263 262 260 257 253 254 262 266 266 265 265 267 272 274 272 266 256 250 249 249 249 250 250 250 250 249 251 256 261 265 267 266 269 274 278 280 282 284 287 289 292 297 301 303 305 306 309 312 315 318 322 326 330 333 337 340 341 342 343 344 345 346
271 269 267 265 262 259 257 257 260 263 265 266 265 263 262 258 249 246 256 262 263 262 261 261 265 270 274 273 264 258 257 256 253 253 253 253 253 253 254 257 261 265 270 271 272 273 276 280 281 283 285 287 288 292 297 299 300 302 304 306 308 310 314 318 322 326 329 332 333 335 336 337 338 339
269 267 265 264 263 261 258 256 257 260 263 266 267 265 263 259 250 243 252 259 260 259 258 256 260 266 271 274 273 268 264 261 253 247 248 252 256 258 258 260 262 265 270 274 276 274 273 275 278 280 282 283 284 287 291 293 295 297 299 302 304 306 308 311 314 317 320 323 327 330 331 332 332 333
267 267 265 263 261 260 258 256 255 256 260 264 266 266 265 261 252 244 248 255 258 258 257 257 260 265 269 272 274 271 265 258 251 246 244 249 257 262 261 260 262 265 268 273 278 279 277 274 274 275 276 278 278 279 282 285 287 289 290 293 297 301 305 309 311 312 314 316 320 324 328 330 331 331
267 267 266 264 261 260 258 256 254 253 254 257 260 263 264 263 257 249 246 250 255 260 262 262 263 266 269 269 270 269 264 258 254 251 248 248 252 257 259 258 261 262 261 263 270 276 278 276 274 273 274 276 275 272 272 275 277 278 277 277 284 295 307 315 320 322 324 325 325 325 326 328 329 329
266 266 265 264 262 260 258 256 255 253 251 252 255 259 262 263 261 255 250 249 252 256 259 261 264 267 268 268 267 266 264 261 259 256 252 251 251 253 256 258 260 259 253 251 257 265 271 272 271 273 274 272 265 260 261 265 270 273 275 283 303 318 327 338 342 340 341 344 342 338 334 330 327 325
264 265 265 264 262 261 259 256 255 255 253 252 253 256 259 262 262 260 257 253 252 252 253 256 260 263 264 266 267 264 260 258 259 258 257 256 256 256 257 259 259 257 251 247 250 258 264 265 264 266 266 261 253 254 258 262 269 277 286 300 315 325 334 343 346 343 341 341 341 340 338 333 328 325
261 261 262 263 263 263 262 260 258 257 256 255 254 255 257 259 261 262 261 258 256 255 254 253 255 258 260 263 265 263 259 256 257 257 257 257 258 260 261 261 259 256 250 246 247 252 259 261 258 256 258 259 257 256 258 260 266 273 280 286 292 301 313 324 330 333 333 331 330 332 331 329 328 326
258 258 259 260 262 263 264 263 261 260 259 257 256 256 256 257 259 261 262 262 260 259 258 256 256 256 258 261 262 260 258 259 259 257 257 258 258 258 260 261 259 254 247 244 244 246 251 256 257 257 260 263 264 263 261 261 264 270 274 277 280 286 298 309 314 318 320 320 320 322 323 324 326 325
256 257 257 258 259 260 262 263 263 262 262 260 258 258 258 258 258 259 260 262 262 261 260 259 257 255 255 257 259 258 257 259 261 260 259 259 257 254 252 254 256 254 248 244 245 246 247 251 256 260 264 266 269 270 268 268 269 271 274 277 279 284 292 301 306 308 309 309 310 313 315 319 323 323
257 256 255 256 257 258 259 261 262 263 264 263 262 261 261 260 260 259 259 260 261 261 260 260 259 257 254 252 253 254 254 256 259 262 262 261 259 254 249 249 252 253 250 246 246 248 250 251 255 260 264 266 269 270 270 271 272 272 273 277 281 284 289 295 298 299 301 301 303 305 308 312 317 319
257 255 254 254 255 256 257 259 260 262 264 265 265 265 264 262 262 260 259 259 259 259 260 260 260 258 254 250 249 250 251 253 256 260 261 261 260 258 255 254 255 255 253 249 246 246 248 250 251 254 259 263 267 268 269 271 274 275 276 278 281 283 286 288 288 290 293 295 296 297 298 299 305 311
253 253 253 253 253 254 255 257 259 260 262 263 265 266 266 265 263 262 260 258 258 259 260 261 261 259 256 251 247 246 248 250 253 254 256 258 259 260 259 260 260 259 257 255 252 248 246 246 247 250 255 261 266 271 274 277 281 282 280 278 280 281 281 280 279 283 288 291 292 293 292 292 296 304
250 250 251 252 253 253 254 256 257 259 260 262 263 264 265 265 264 263 261 259 257 257 259 261 261 261 259 255 249 245 245 248 250 250 250 253 256 257 258 259 260 261 260 260 258 254 248 245 246 249 254 261 268 275 280 284 284 281 278 277 278 278 277 278 281 286 290 292 292 292 293 292 293 301
248 248 249 249 250 252 255 256 257 258 259 261 262 263 264 265 264 263 262 260 258 256 257 258 260 261 261 259 255 250 247 247 249 250 249 250 252 254 255 256 259 261 261 262 261 258 253 250 250 253 259 267 273 278 281 282 279 277 280 282 282 282 280 280 284 288 290 291 291 292 294 294 294 299
245 246 247 246 247 250 253 255 257 258 259 260 261 262 263 264 264 263 262 261 261 259 256 256 258 259 259 259 258 256 252 250 250 251 251 251 251 252 253 254 257 259 260 260 261 260 256 254 254 257 261 267 271 274 278 282 282 283 286 287 287 288 287 283 282 285 288 287 287 290 294 293 293 298
243 245 246 246 246 248 250 252 254 257 260 262 262 262 261 262 263 263 261 261 261 261 259 257 257 257 256 256 257 257 256 255 255 255 255 253 252 252 252 253 255 256 258 259 260 260 259 257 258 261 263 268 273 277 281 286 287 287 288 286 286 289 290 285 281 282 284 284 286 293 296 293 292 296
244 245 246 246 246 246 247 250 253 257 260 263 264 263 261 260 260 261 261 260 261 261 260 259 258 257 256 255 255 256 257 257 258 259 258 257 256 255 253 253 255 256 257 258 259 260 260 259 261 263 266 270 276 281 285 288 287 285 284 283 282 283 285 284 280 278 280 284 288 291 291 289 290 296
246 246 247 247 247 247 249 251 254 257 260 262 264 264 262 259 258 258 258 259 260 260 260 260 260 259 258 257 256 256 256 257 258 259 260 260 259 258 256 256 257 257 258 258 258 259 259 260 262 264 267 271 275 278 282 285 286 285 283 282 280 277 277 278 276 275 277 282 286 285 282 283 289 295
247 247 248 248 248 249 251 253 255 257 259 262 264 264 261 259 257 257 256 256 257 258 259 259 260 260 260 259 258 257 257 258 259 259 260 261 261 261 260 260 260 260 260 260 260 259 260 261 263 266 269 271 274 276 278 280 282 284 284 282 279 275 272 273 274 275 276 280 283 281 278 279 285 291
247 248 248 249 249 251 252 253 255 256 259 261 263 262 260 258 257 256 256 255 255 256 256 258 258 259 259 259 259 259 259 260 260 260 260 261 261 263 263 263 262 262 263 263 263 262 261 262 264 267 269 271 272 274 275 276 277 281 283 281 277 273 270 270 272 273 274 277 279 277 274 275 280 285
248 248 249 249 250 251 252 253 255 257 259 260 261 260 258 257 256 255 254 254 255 255 255 255 257 258 258 258 258 259 259 260 261 260 261 261 261 262 264 264 264 263 263 263 264 264 263 263 265 267 269 270 271 273 273 273 274 276 280 280 277 272 269 269 271 272 272 273 274 273 272 274 278 280
249 249 250 250 251 251 252 254 255 256 258 258 258 258 256 256 255 255 254 253 254 254 254 254 255 256 257 258 258 258 259 260 261 261 261 262 261 262 264 264 264 263 263 263 264 265 265 265 266 268 269 270 271 272 272 272 272 273 275 276 275 272 269 269 272 273 273 272 271 272 275 278 280 280
250 250 251 251 252 252 253 254 255 256 256 256 256 255 254 254 254 254 254 253 253 253 254 254 254 255 256 256 257 257 258 259 260 261 261 262 262 261 262 263 263 263 263 262 263 265 266 266 267 268 269 270 271 272 272 271 270 269 270 271 271 270 269 268 270 271 272 272 272 275 278 280 280 279
Height
11009 11008 11007 11006 11006 11005 11005 11004 11004 11003 11003 11002 11002 11002 11001 11001 11000 10999 10999 10998 10998 10997 10997 10996 10996 10995 10995 10994 10993 10993 10992 10991 10991 10990 10989 10988 10988 10987 10986 10985 10984 10983 10982 10981 10980 10980 10979 10978 10976 10975 10974 10972 10971 10969 10968 10966 10965 10964 10963 10961 10959 10958 10956 10954 10952 10950 10948 10946 10944 10942 10940 10938 10936 10934
11012 11011 11009 11008 11008 11007 11006 11006 11005 11005 11004 11004 11003 11003 11002 11001 11001 11000 10999 10999 10998 10997 10997 10997 10996 10995 10995 10994 10993 10992 10991 10991 10990 10989 10988 10988 10987 10986 10985 10984 10984 10983 10982 10981 10980 10980 10979 10978 10977 10975 10974 10973 10972 10970 10969 10968 10966 10965 10964 10963 10961 10960 10958 10956 10954 10952 10950 10948 10946 10944 10942 10940 10938 10936
11015 11013 11012 11011 11010 11009 11008 11008 11007 11007 11006 11005 11005 11004 11003 11003 11002 11001 11000 10999 10999 10998 10997 10997 10996 10995 10995 10994 10993 10992 10991 10990 10990 10989 10988 10987 10987 10986 10985 10984 10983 10982 10982 10981 10980 10980 10979 10978 10977 10976 10975 10974 10973 10972 10971 10970 10969 10968 10966 10965 10964 10962 10961 10959 10957 10955 10953 10951 10949 10947 10945 10943 10941 10940
11018 11016 11015 11014 11013 11012 11011 11010 11009 11009 11008 11008 11007 11006 11005 11004 11003 11002 11001 11000 11000 10999 10998 10997 10997 10996 10995 10994 10994 10993 10992 10991 10990 10989 10988 10987 10987 10986 10985 10984 10983 10982 10982 10981 10981 10980 10979 10979 10978 10978 10977 10976 10975 10974 10973 10972 10972 10970 10969 10968 10967 10965 10964 10962 10960 10958 10956 10955 10953 10951 10949 10948 10946 10944
11021 11019 11018 11016 11015 11014 11013 11013 11012 11011 11011 11010 11009 11008 11007 11006 11005 11004 11003 11002 11001 11000 11000 10999 10998 10997 10996 10996 10995 10994 10993 10992 10991 10990 10989 10988 10987 10986 10985 10985 10984 10983 10983 10982 10982 10981 10981 10981 10980 10980 10979 10979 10978 10977 10976 10975 10975 10974 10973 10971 10970 10969 10967 10965 10964 10962 10960 10958 10957 10955 10954 10953 10951 10950
11024 11022 11021 11019 11018 11017 11016 11015 11014 11013 11013 11012 11011 11010 11009 11008 11007 11006 11005 11004 11003 11002 11002 11001 11000 10999 10998 10997 10996 10995 10994 10993 10992 10991 10990 10989 10988 10988 10987 10986 10986 10986 10985 10985 10984 10984 10984 10983 10983 10983 10982 10982 10981 10980 10979 10979 10978 10977 10976 10974 10973 10972 10971 10969 10968 10966 10963 10962 10961 10960 10959 10957 10956 10955
11026 11025 11024 11022 11021 11020 11019 11017 11016 11016 11015 11014 11013 11012 11012 11011 11010 11009 11008 11007 11006 11005 11004 11003 11002 11002 11001 11000 10999 10998 10997 10995 10994 10993 10993 10992 10991 10991 10990 10990 10989 10989 10988 10988 10988 10987 10987 10986 10986 10986 10985 10985 10984 10983 10982 10982 10981 10980 10979 10977 10976 10975 10974 10973 10972 10969 10967 10965 10965 10964 10963 10962 10961 10960
11029 11028 11026 11025 11024 11023 11021 11020 11019 11018 11017 11016 11015 11015 11014 11013 11013 11012 11011 11010 11009 11008 11007 11006 11006 11005 11004 11003 11002 11001 11000 10999 10998 10997 10997 10996 10996 10995 10995 10994 10994 10993 10992 10992 10991 10991 10990 10990 10989 10989 10989 10988 10987 10986 10986 10985 10984 10983 10982 10980 10979 10978 10977 10977 10975 10973 10970 10969 10968 10968 10967 10966 10965 10965
11032 11031 11029 11028 11027 11026 11024 11023 11022 11021 11020 11019 11018 11017 11016 11016 11015 11015 11014 11014 11013 11012 11011 11010 11009 11008 11008 11007 11006 11005 11004 11003 11002 11002 11001 11001 11000 11000 10999 10999 10998 10997 10996 10996 10995 10994 10993 10993 10993 10992 10992 10991 10990 10989 10989 10988 10987 10986 10985 10983 10982 10981 10980 10980 10979 10976 10974 10973 10972 10971 10971 10970 10969 10968
11034 11033 11032 11030 11029 11028 11027 11026 11025 11024 11023 11021 11020 11020 11019 11018 11018 11017 11017 11016 11016 11015 11015 11014 11013 11012 11012 11011 11010 11009 11008 11008 11007 11006 11006 11005 11005 11004 11004 11003 11002 11001 11000 11000 10999 10998 10997 10996 10996 10995 10995 10994 10993 10993 10992 10991 10990 10989 10988 10986 10985 10984 10983 10982 10981 10980 10978 10976 10975 10975 10974 10973 10972 10972
11036 11035 11034 11032 11031 11030 11029 11028 11027 11026 11025 11024 11023 11022 11021 11021 11020 11020 11019 11019 11019 11018 11018 11018 11017 11016 11015 11015 11014 11013 11012 11012 11011 11010 11010 11009 11009 11009 11008 11007 11006 11005 11005 11003 11002 11002 11001 11000 10999 10999 10998 10997 10996 10996 10995 10994 10993 10992 10990 10989 10988 10987 10986 10985 10985 10983 10981 10980 10979 10978 10977 10977 10976 10975
11038 11036 11035 11034 11033 11032 11031 11030 11029 11028 11027 11026 11026 11025 11024 11023 11023 11022 11022 11021 11021 11021 11021 11020 11020 11019 11019 11018 11018 11017 11016 11016 11015 11014 11014 11013 11013 11012 11012 11011 11010 11009 11008 11007 11006 11005 11005 11004 11003 11002 11001 11000 10999 10998 10997 10996 10996 10994 10993 10992 10991 10990 10989 10988 10987 10986 10984 10983 10982 10981 10980 10980 10979 10978
11038 11037 11036 11035 11034 11033 11032 11031 11030 11029 11029 11028 11027 11027 11026 11025 11025 11024 11024 11024 11024 11023 11023 11023 11023 11022 11022 11022 11021 11021 11020 11019 11019 11018 11018 11017 11017 11016 11016 11015 11014 11013 11012 11011 11010 11009 11008 11007 11006 11005 11004 11003 11001 11000 11000 10999 10998 10997 10996 10994 10993 10992 10991 10990 10989 10988 10986 10985 10985 10984 10983 10982 10981 10980
11037 11037 11036 11036 11035 11034 11033 11032 11031 11030 11029 11029 11028 11028 11027 11027 11026 11026 11026 11026 11026 11025 11025 11025 11025 11025 11025 11024 11024 11024 11024 11023 11022 11022 11022 11021 11020 11020 11019 11018 11017 11016 11015 11014 11013 11012 11011 11010 11008 11007 11006 11005 11004 11003 11002 11001 10999 10998 10997 10996 10995 10993 10992 10992 10991 10990 10988 10987 10987 10986 10985 10984 10983 10982
11036 11036 11036 11035 11035 11034 11033 11032 11031 11031 11030 11029 11029 11028 11028 11027 11027 11027 11027 11027 11027 11027 11027 11027 11027 11027 11027 11027 11027 11026 11026 11026 11026 11025 11025 11024 11023 11023 11022 11021 11020 11019 11018 11017 11016 11015 11014 11012 11011 11010 11008 11007 11006 11005 11003 11002 11001 11000 10998 10997 10996 10995 10994 10993 10992 10991 10990 10989 10988 10987 10986 10985 10985 10984
11036 11035 11035 11034 11034 11033 11033 11032 11031 11031 11030 11029 11029 11028 11028 11027 11027 11027 11027 11028 11028 11028 11028 11028 11028 11029 11029 11028 11028 11028 11028 11028 11028 11027 11027 11026 11026 11025 11025 11024 11023 11022 11021 11020 11019 11018 11016 11015 11013 11012 11010 11009 11008 11006 11005 11004 11002 11001 11000 10998 10997 10996 10995 10994 10993 10992 10990 10989 10988 10988 10987 10986 10985 10984
11035 11035 11034 11034 11033 11032 11031 11031 11030 11030 11029 11028 11028 11028 11027 11027 11027 11027 11027 11027 11028 11028 11028 11029 11029 11029 11030 11030 11030 11030 11029 11029 11029 11028 11028 11028 11027 11027 11026 11025 11025 11024 11023 11022 11021 11020 11018 11017 11015 11014 11012 11010 11009 11008 11006 11005 11003 11002 11001 10999 10998 10997 10996 10995 10993 10992 10991 10989 10989 10988 10987 10986 10985 10985
11034 11034 11033 11033 11032 11031 11030 11029 11029 11028 11028 11027 11027 11027 11026 11026 11026 11026 11026 11026 11027 11027 11028 11028 11029 11029 11030 11030 11030 11030 11030 11030 11030 11029 11029 11028 11028 11027 11027 11026 11025 11024 11024 11023 11022 11021 11019 11018 11017 11015 11014 11012 11010 11009 11007 11006 11004 11003 11002 11000 10999 10998 10997 10995 10994 10993 10991 10990 10989 10988 10987 10986 10985 10984
11033 11032 11032 11032 11031 11030 11029 11028 11027 11027 11026 11026 11026 11025 11025 11025 11025 11025 11025 11025 11025 11026 11026 11027 11028 11028 11029 11029 11029 11030 11030 11030 11029 11029 11029 11028 11028 11027 11026 11026 11025 11024 11024 11023 11022 11021 11020 11019 11018 11016 11015 11013 11012 11010 11008 11007 11006 11004 11003 11001 11000 10999 10997 10996 10994 10993 10992 10990 10989 10988 10987 10985 10984 10983
11030 11030 11030 11030 11029 11029 11028 11027 11026 11025 11024 11024 11024 11024 11024 11024 11024 11023 11023 11023 11024 11024 11024 11025 11025 11026 11027 11027 11028 11028 11028 11028 11028 11028 11028 11028 11027 11026 11026 11025 11024 11023 11023 11022 11021 11020 11020 11019 11017 11016 11015 11014 11012 11011 11009 11008 11006 11005 11003 11002 11001 10999 10998 10996 10995 10993 10992 10991 10989 10988 10987 10985 10984 10983
11027 11027 11027 11027 11027 11027 11027 11026 11025 11024 11023 11022 11022 11022 11022 11022 11023 11023 11022 11021 11022 11022 11022 11022 11023 11023 11024 11025 11025 11025 11026 11026 11026 11026 11026 11026 11025 11025 11024 11024 11023 11022 11021 11021 11020 11019 11019 11018 11017 11015 11014 11013 11012 11011 11010 11008 11007 11005 11004 11003 11001 11000 10998 10997 10995 10994 10993 10991 10990 10988 10987 10985 10984 10983
11023 11023 11023 11023 11023 11024 11024 11024 11023 11022 11021 11020 11020 11020 11020 11020 11022 11022 11021 11020 11020 11021 11021 11021 11021 11021 11022 11022 11022 11022 11023 11023 11023 11023 11022 11022 11022 11022 11022 11021 11021 11020 11019 11019 11019 11018 11017 11016 11015 11014 11013 11012 11011 11010 11009 11008 11007 11005 11004 11003 11001 11000 10999 10997 10996 10994 10993 10991 10990 10988 10987 10985 10984 10982
11020 11020 11020 11020 11020 11021 11021 11021 11020 11019 11018 11017 11017 11017 11017 11018 11020 11021 11019 11018 11019 11019 11019 11019 11020 11020 11020 11020 11020 11020 11020 11020 11019 11019 11019 11019 11018 11018 11019 11019 11018 11018 11017 11017 11017 11016 11015 11014 11013 11012 11011 11011 11010 11009 11008 11007 11006 11005 11004 11002 11001 11000 10999 10997 10996 10994 10993 10991 10990 10988 10986 10985 10983 10982
11016 11016 11016 11017 11017 11017 11018 11018 11017 11017 11016 11015 11014 11014 11014 11015 11017 11018 11017 11016 11016 11017 11017 11017 11018 11018 11018 11018 11018 11018 11018 11017 11017 11016 11015 11015 11015 11015 11015 11015 11015 11015 11014 11013 11013 11013 11013 11012 11011 11010 11009 11008 11008 11007 11006 11005 11004 11004 11003 11002 11000 10999 10998 10997 10995 10994 10992 10991 10989 10987 10986 10984 10983 10981
11012 11013 11013 11013 11013 11014 11014 11014 11014 11014 11013 11012 11011 11011 11011 11012 11014 11015 11015 11014 11014 11014 11015 11016 11016 11016 11016 11016 11016 11016 11016 11016 11015 11014 11013 11013 11013 11012 11012 11011 11011 11011 11011 11010 11009 11009 11009 11009 11008 11007 11006 11006 11005 11005 11004 11003 11002 11002 11001 11000 10999 10998 10997 10995 10994 10993 10991 10990 10988 10986 10985 10983 10982 10980
11007 11008 11010 11010 11010 11010 11010 11010 11010 11010 11010 11009 11008 11007 11008 11009 11010 11012 11012 11011 11011 11012 11013 11013 11014 11014 11014 11014 11014 11014 11014 11014 11013 11012 11012 11012 11011 11010 11009 11008 11008 11007 11007 11008 11007 11006 11005 11005 11005 11004 11004 11003 11003 11002 11002 11001 11000 11000 10999 10998 10997 10996 10994 10993 10992 10991 10989 10988 10987 10985 10984 10982 10980 10979
11001 11002 11004 11005 11006 11007 11007 11006 11005 11005 11005 11005 11004 11004 11004 11005 11006 11008 11008 11009 11009 11010 11010 11010 11010 11011 11011 11011 11011 11011 11011 11011 11010 11010 11010 11010 11010 11009 11008 11007 11006 11004 11004 11004 11003 11003 11002 11002 11002 11001 11001 11000 11000 11000 10999 10999 10999 10998 10997 10996 10995 10993 10992 10991 10989 10988 10987 10986 10985 10983 10982 10980 10979 10977
10996 10996 10997 10999 11000 11002 11002 11002 11001 11001 11001 11001 11001 11001 11001 11002 11003 11004 11005 11006 11007 11007 11007 11007 11007 11007 11007 11008 11008 11008 11008 11007 11007 11007 11008 11008 11008 11007 11006 11006 11004 11003 11001 11001 11001 11000 10999 10999 10999 10999 10998 10998 10998 10998 10997 10997 10996 10996 10995 10994 10992 10991 10990 10988 10987 10986 10984 10983 10982 10981 10979 10978 10977 10975
10990 10990 10991 10992 10994 10995 10996 10997 10997 10997 10997 10998 10998 10998 10998 10998 10999 11000 11002 11003 11004 11003 11003 11003 11003 11003 11003 11004 11004 11004 11004 11004 11004 11004 11005 11005 11005 11005 11005 11004 11002 11000 10999 10999 10998 10997 10996 10996 10996 10996 10996 10996 10995 10995 10995 10994 10994 10993 10992 10991 10990 10989 10988 10986 10985 10984 10982 10980 10979 10977 10976 10975 10974 10972
10983 10984 10986 10987 10988 10988 10990 10991 10992 10993 10993 10994 10994 10994 10995 10996 10996 10997 10998 10999 10999 10999 10999 10999 10999 10999 10999 10999 10999 11000 11001 11001 11001 11002 11003 11003 11002 11002 11002 11001 10998 10996 10996 10995 10994 10994 10994 10994 10994 10994 10994 10993 10993 10992 10992 10991 10990 10990 10989 10988 10988 10987 10986 10984 10983 10982 10980 10978 10977 10975 10973 10971 10970 10969
10977 10978 10980 10981 10981 10982 10983 10985 10986 10987 10988 10989 10990 10990 10991 10992 10993 10993 10994 10994 10995 10994 10994 10994 10995 10995 10995 10995 10995 10996 10997 10997 10997 10998 10999 10999 10997 10997 10998 10996 10992 10991 10992 10992 10991 10991 10991 10991 10991 10991 10991 10991 10990 10990 10989 10987 10986 10986 10985 10984 10984 10983 10983 10982 10980 10979 10978 10976 10974 10973 10971 10969 10968 10967
10972 10972 10973 10973 10974 10975 10976 10978 10979 10981 10982 10983 10985 10986 10987 10988 10989 10990 10990 10991 10990 10989 10989 10990 10990 10990 10991 10991 10991 10991 10993 10993 10992 10993 10994 10994 10992 10992 10992 10991 10988 10987 10988 10989 10988 10988 10988 10988 10988 10987 10987 10986 10986 10986 10985 10984 10983 10983 10982 10981 10980 10979 10979 10978 10976 10974 10973 10972 10970 10969 10968 10967 10966 10964
10966 10966 10966 10966 10967 10968 10969 10971 10972 10974 10975 10977 10978 10979 10980 10982 10984 10985 10985 10986 10985 10984 10984 10985 10984 10984 10985 10986 10986 10987 10989 10989 10989 10990 10990 10989 10988 10988 10988 10987 10985 10984 10985 10986 10986 10986 10985 10984 10983 10983 10982 10982 10982 10982 10981 10980 10980 10980 10980 10979 10977 10975 10974 10973 10971 10969 10968 10966 10965 10964 10964 10963 10962 10961
10959 10959 10959 10959 10960 10962 10963 10964 10965 10966 10968 10970 10971 10972 10973 10975 10977 10978 10979 10980 10980 10980 10980 10980 10978 10978 10979 10980 10981 10983 10984 10984 10984 10985 10985 10984 10984 10984 10984 10983 10981 10980 10981 10982 10982 10982 10982 10980 10980 10979 10978 10978 10979 10979 10978 10978 10978 10978 10978 10976 10973 10970 10969 10967 10966 10964 10963 10962 10960 10959 10958 10958 10957 10956
10950 10952 10953 10953 10953 10955 10957 10957 10958 10959 10961 10963 10963 10965 10966 10968 10970 10971 10972 10973 10975 10975 10975 10974 10973 10973 10974 10975 10976 10977 10978 10978 10978 10979 10979 10979 10979 10979 10979 10978 10975 10975 10976 10976 10976 10976 10977 10976 10975 10975 10975 10975 10976 10976 10976 10977 10976 10975 10973 10971 10968 10965 10964 10963 10962 10961 10959 10959 10957 10955 10953 10952 10952 10952
10941 10943 10945 10946 10946 10948 10950 10950 10951 10953 10954 10955 10956 10957 10959 10960 10962 10964 10965 10967 10968 10969 10969 10969 10969 10969 10969 10969 10969 10970 10971 10972 10972 10973 10973 10974 10975 10975 10974 10973 10971 10970 10971 10971 10970 10970 10971 10971 10971 10971 10971 10972 10973 10972 10971 10972 10971 10969 10967 10965 10962 10960 10960 10960 10959 10957 10955 10955 10953 10951 10949 10948 10947 10947
10932 10934 10936 10937 10937 10939 10941 10942 10943 10946 10948 10948 10950 10951 10952 10953 10954 10956 10958 10960 10960 10961 10962 10963 10964 10963 10963 10963 10962 10962 10963 10965 10965 10966 10966 10968 10969 10969 10968 10967 10966 10965 10965 10965 10964 10965 10966 10966 10966 10966 10966 10967 10968 10966 10964 10964 10964 10963 10963 10960 10957 10955 10956 10957 10955 10952 10950 10950 10949 10948 10946 10944 10942 10943
10922 10923 10925 10927 10928 10930 10933 10934 10935 10937 10939 10941 10943 10944 10945 10945 10946 10948 10951 10952 10952 10953 10954 10955 10956 10956 10956 10956 10956 10956 10956 10957 10958 10958 10959 10960 10962 10962 10961 10961 10960 10960 10959 10958 10958 10958 10959 10959 10960 10961 10962 10962 10963 10961 10959 10958 10958 10959 10960 10958 10954 10952 10953 10953 10950 10947 10945 10944 10943 10943 10942 10940 10938 10938
10911 10912 10914 10916 10918 10920 10923 10925 10926 10928 10930 10932 10934 10936 10937 10938 10939 10940 10942 10943 10944 10944 10945 10946 10947 10947 10948 10948 10948 10949 10950 10950 10951 10951 10952 10953 10953 10954 10955 10955 10955 10954 10953 10952 10951 10950 10951 10952 10954 10955 10956 10957 10958 10957 10955 10952 10952 10953 10955 10954 10951 10950 10949 10948 10946 10943 10940 10939 10939 10938 10937 10935 10933 10932
10900 10901 10903 10905 10907 10910 10912 10915 10917 10918 10920 10922 10925 10927 10929 10930 10931 10932 10933 10934 10935 10936 10937 10937 10938 10939 10940 10940 10940 10941 10942 10943 10944 10944 10945 10945 10945 10946 10947 10948 10948 10947 10947 10945 10944 10943 10943 10944 10946 10947 10948 10949 10950 10951 10949 10947 10945 10945 10947 10947 10946 10945 10943 10942 10940 10938 10935 10934 10934 10934 10931 10929 10929 10928
10887 10889 10892 10894 10896 10898 10901 10904 10906 10908 10910 10912 10915 10917 10919 10921 10922 10923 10924 10926 10927 10928 10928 10929 10929 10930 10931 10931 10931 10933 10934 10934 10935 10937 10937 10938 10937 10937 10938 10940 10940 10939 10939 10938 10937 10936 10936 10937 10939 10940 10941 10942 10943 10944 10943 10942 10938 10935 10936 10938 10938 10937 10936 10935 10934 10932 10930 10928 10929 10928 10924 10923 10924 10922
10873 10876 10879 10882 10884 10887 10889 10892 10895 10897 10899 10902 10904 10906 10908 10910 10912 10913 10914 10916 10917 10919 10920 10920 10920 10921 10923 10923 10923 10924 10925 10925 10926 10928 10930 10930 10930 10929 10930 10931 10931 10931 10931 10931 10929 10928 10928 10931 10933 10933 10933 10935 10936 10937 10936 10935 10932 10929 10926 10927 10928 10929 10929 10927 10927 10927 10925 10923 10922 10921 10918 10917 10918 10916
10860 10863 10866 10868 10871 10874 10876 10879 10882 10885 10888 10891 10893 10895 10897 10899 10901 10902 10904 10905 10907 10909 10910 10911 10911 10912 10913 10914 10915 10916 10916 10916 10917 10920 10921 10921 10922 10922 10922 10922 10922 10922 10922 10922 10920 10919 10921 10923 10925 10925 10926 10927 10928 10930 10929 10927 10926 10924 10920 10918 10918 10919 10919 10919 10919 10920 10919 10917 10915 10912 10910 10911 10913 10910
10845 10849 10852 10854 10857 10860 10863 10866 10869 10872 10876 10879 10882 10884 10885 10887 10888 10890 10892 10894 10896 10898 10900 10901 10902 10902 10903 10904 10906 10907 10907 10907 10908 10910 10911 10912 10913 10913 10913 10913 10914 10913 10912 10912 10911 10910 10912 10914 10916 10917 10918 10919 10919 10921 10921 10919 10918 10918 10915 10911 10909 10908 10908 10910 10911 10911 10911 10909 10907 10905 10904 10905 10906 10904
10831 10834 10838 10840 10842 10846 10849 10853 10855 10858 10862 10866 10869 10871 10873 10875 10876 10877 10879 10882 10885 10887 10889 10890 10891 10892 10893 10894 10895 10897 10897 10898 10899 10900 10901 10902 10903 10904 10904 10905 10905 10905 10903 10902 10902 10901 10902 10904 10906 10907 10909 10910 10910 10911 10912 10911 10911 10910 10907 10905 10903 10900 10898 10900 10902 10903 10902 10901 10899 10898 10899 10899 10898 10896